Regional Weather Roundup
Issued by NWS Charleston, WV

Home | Current Version | Previous Version | Text Only | Print | Product List | Glossary Off
Versions: 1 2 3 4 5 6 7 8 9 10 11 12 13 14 15 16 17 18 19 20 21 22 23 24 25 26 27 28 29 30 31 32 33 34 35 36 37 38 39 40 41 42 43 44 45 46 47 48 49 50

000
ASUS41 KRLX 022010
RWRRLX
West Virginia Regional Weather Roundup
National Weather Service Charleston WV
400 PM EDT WED SEP 02 2015

Note: "fair" indicates few or no clouds below 12,000 feet with no
significant weather and/or obstructions to visibility.

WVZ003-022100-
Northern Panhandle of West Virginia

CITY           SKY/WX    TMP DP  RH WIND       PRES   REMARKS
WHEELING       MOSUNNY   87  64  46 NW9       30.03F
$$

WVZ009-022100-
Northwest West Virginia

CITY           SKY/WX    TMP DP  RH WIND       PRES   REMARKS
PARKERSBURG    TSTM      75  66  73 E7        30.07R
$$

WVZ006-022100-
Western West Virginia

CITY           SKY/WX    TMP DP  RH WIND       PRES   REMARKS
HUNTINGTON     LGT RAIN  78  67  68 N10       30.06S
$$

WVZ015-022100-
West Central West Virginia

CITY           SKY/WX    TMP DP  RH WIND       PRES   REMARKS
CHARLESTON     MOSUNNY   88  65  46 N10       30.04F
$$

WVZ022-031-022100-
North Central West Virginia

CITY           SKY/WX    TMP DP  RH WIND       PRES   REMARKS
CLARKSBURG     MOSUNNY   85  67  54 SW8       30.05F
MORGANTOWN     PTSUNNY   81  59  47 CALM      30.06F
$$

WVZ025-035-042-045-022100-
Southern West Virginia

CITY           SKY/WX    TMP DP  RH WIND       PRES   REMARKS
BECKLEY        PTSUNNY   82  62  50 NW7       30.13F
LOGAN            N/A     86  66  51 VRB5      30.09F
BLUEFIELD      MOSUNNY   83  57  41 NW8       30.16F
LEWISBURG      SUNNY     86  58  38 NW6       30.11F
$$

WVZ047-022100-
Northern Mountains of West Virginia

CITY           SKY/WX    TMP DP  RH WIND       PRES   REMARKS
ELKINS         CLOUDY    74  61  63 W6        30.15R
$$

WVZ052-022100-
Eastern Panhandle of West Virginia

CITY           SKY/WX    TMP DP  RH WIND       PRES   REMARKS
MARTINSBURG    CLOUDY    81  67  62 S12       30.00R
PETERSBURG     TSTM      69  65  87 N3        30.07R VSB 1
$$



USA.gov is the U.S. government's official web portal to all federal, state and local government web resources and services.